Time,TemperatureF,DewpointF,PressureIn,WindDirection,WindDirectionDegrees,WindSpeedMPH,WindSpeedGustMPH,Humidity,HourlyPrecipIn,Conditions,Clouds,dailyrainin,SoftwareType,DateUTC
2013-04-14 00:00:00,69.6,35.0,29.46,SW,232,14.0,14.0,28,0.00,,,0.00,Wunderground v.1.15,2013-04-14 07:00:00,
2013-04-14 00:05:00,69.6,35.0,29.45,SW,226,13.0,20.0,28,0.00,,,0.00,Wunderground v.1.15,2013-04-14 07:05:00,
2013-04-14 00:15:00,69.6,35.0,29.45,WSW,247,11.0,14.0,28,0.00,,,0.00,Wunderground v.1.15,2013-04-14 07:15:00,
2013-04-14 00:20:00,69.6,35.0,29.46,SW,228,11.0,11.0,28,0.00,,,0.00,Wunderground v.1.15,2013-04-14 07:20:00,
2013-04-14 00:30:00,69.8,35.2,29.46,South,188,11.0,11.0,28,0.00,,,0.00,Wunderground v.1.15,2013-04-14 07:30:00,
2013-04-14 00:40:00,69.4,34.9,29.46,SW,216,10.0,10.0,28,0.00,,,0.00,Wunderground v.1.15,2013-04-14 07:40:00,
2013-04-14 00:45:00,69.4,34.9,29.46,SW,215,8.0,11.0,28,0.00,,,0.00,Wunderground v.1.15,2013-04-14 07:45:00,
2013-04-14 00:55:00,69.1,33.7,29.46,SW,227,7.0,9.0,27,0.00,,,0.00,Wunderground v.1.15,2013-04-14 07:55:00,
2013-04-14 01:00:00,69.1,33.7,29.46,South,175,8.0,11.0,27,0.00,,,0.00,Wunderground v.1.15,2013-04-14 08:00:00,
2013-04-14 01:05:00,68.9,34.4,29.46,South,184,7.0,11.0,28,0.00,,,0.00,Wunderground v.1.15,2013-04-14 08:05:00,
2013-04-14 01:15:00,68.8,34.3,29.46,SW,223,7.0,7.0,28,0.00,,,0.00,Wunderground v.1.15,2013-04-14 08:15:00,
2013-04-14 01:20:00,68.6,34.2,29.46,SW,221,6.0,14.0,28,0.00,,,0.00,Wunderground v.1.15,2013-04-14 08:20:00,
2013-04-14 01:30:00,68.6,35.1,29.46,SW,217,8.0,11.0,29,0.00,,,0.00,Wunderground v.1.15,2013-04-14 08:30:00,
2013-04-14 01:40:00,68.8,34.3,29.45,SW,215,9.0,15.0,28,0.00,,,0.00,Wunderground v.1.15,2013-04-14 08:40:00,
2013-04-14 01:45:00,68.8,34.3,29.45,SW,220,8.0,15.0,28,0.00,,,0.00,Wunderground v.1.15,2013-04-14 08:45:00,
2013-04-14 01:55:00,68.9,34.4,29.45,SSW,202,8.0,11.0,28,0.00,,,0.00,Wunderground v.1.15,2013-04-14 08:55:00,
2013-04-14 02:05:00,68.9,33.5,29.45,SW,226,8.0,10.0,27,0.00,,,0.00,Wunderground v.1.15,2013-04-14 09:05:00,
2013-04-14 02:15:00,68.9,33.5,29.45,South,185,7.0,9.0,27,0.00,,,0.00,Wunderground v.1.15,2013-04-14 09:15:00,
2013-04-14 02:20:00,68.9,34.4,29.44,SW,229,6.0,6.0,28,0.00,,,0.00,Wunderground v.1.15,2013-04-14 09:20:00,
2013-04-14 02:30:00,68.6,33.3,29.44,SSW,202,6.0,6.0,27,0.00,,,0.00,Wunderground v.1.15,2013-04-14 09:30:00,
2013-04-14 02:40:00,68.4,34.0,29.44,SSW,194,7.0,11.0,28,0.00,,,0.00,Wunderground v.1.15,2013-04-14 09:40:00,
2013-04-14 02:45:00,68.4,34.0,29.44,SW,229,7.0,12.0,28,0.00,,,0.00,Wunderground v.1.15,2013-04-14 09:45:00,
2013-04-14 02:55:00,68.3,33.9,29.44,SW,217,8.0,8.0,28,0.00,,,0.00,Wunderground v.1.15,2013-04-14 09:55:00,
2013-04-14 03:00:00,68.3,33.9,29.44,SSW,202,8.0,8.0,28,0.00,,,0.00,Wunderground v.1.15,2013-04-14 10:00:00,
2013-04-14 03:05:00,68.3,33.0,29.43,SSW,201,8.0,9.0,27,0.00,,,0.00,Wunderground v.1.15,2013-04-14 10:05:00,
2013-04-14 03:15:00,67.6,33.3,29.43,SW,225,5.0,7.0,28,0.00,,,0.00,Wunderground v.1.15,2013-04-14 10:15:00,
2013-04-14 03:25:00,67.9,32.7,29.43,SW,224,7.0,7.0,27,0.00,,,0.00,Wunderground v.1.15,2013-04-14 10:25:00,
2013-04-14 03:30:00,67.8,32.6,29.43,SSW,211,7.0,7.0,27,0.00,,,0.00,Wunderground v.1.15,2013-04-14 10:30:00,
2013-04-14 03:40:00,68.3,33.0,29.43,SSW,207,5.0,5.0,27,0.00,,,0.00,Wunderground v.1.15,2013-04-14 10:40:00,
2013-04-14 03:50:00,67.6,32.4,29.43,SSW,210,9.0,12.0,27,0.00,,,0.00,Wunderground v.1.15,2013-04-14 10:50:00,
2013-04-14 03:55:00,67.3,32.1,29.43,SW,229,9.0,12.0,27,0.00,,,0.00,Wunderground v.1.15,2013-04-14 10:55:00,
2013-04-14 04:05:00,67.4,33.1,29.43,SW,217,7.0,9.0,28,0.00,,,0.00,Wunderground v.1.15,2013-04-14 11:05:00,
2013-04-14 04:15:00,67.6,32.4,29.43,SW,221,7.0,8.0,27,0.00,,,0.00,Wunderground v.1.15,2013-04-14 11:15:00,
2013-04-14 04:25:00,67.6,32.4,29.43,SSW,192,7.0,7.0,27,0.00,,,0.00,Wunderground v.1.15,2013-04-14 11:25:00,
2013-04-14 04:35:00,67.6,32.4,29.43,SSW,199,3.0,8.0,27,0.00,,,0.00,Wunderground v.1.15,2013-04-14 11:35:00,
2013-04-14 04:40:00,66.9,32.7,29.43,SW,215,3.0,6.0,28,0.00,,,0.00,Wunderground v.1.15,2013-04-14 11:40:00,
2013-04-14 04:50:00,66.4,32.3,29.43,SW,215,3.0,3.0,28,0.00,,,0.00,Wunderground v.1.15,2013-04-14 11:50:00,
2013-04-14 04:55:00,66.3,32.2,29.43,SW,232,4.0,7.0,28,0.00,,,0.00,Wunderground v.1.15,2013-04-14 11:55:00,
2013-04-14 05:05:00,66.1,32.0,29.44,SSW,211,6.0,7.0,28,0.00,,,0.00,Wunderground v.1.15,2013-04-14 12:05:00,
2013-04-14 05:15:00,66.1,32.0,29.44,SSW,208,6.0,9.0,28,0.00,,,0.00,Wunderground v.1.15,2013-04-14 12:15:00,
2013-04-14 05:25:00,66.1,32.0,29.44,WSW,244,5.0,6.0,28,0.00,,,0.00,Wunderground v.1.15,2013-04-14 12:25:00,
2013-04-14 05:30:00,65.8,31.8,29.44,SW,229,6.0,8.0,28,0.00,,,0.00,Wunderground v.1.15,2013-04-14 12:30:00,
2013-04-14 05:35:00,65.5,31.5,29.44,SSW,213,7.0,11.0,28,0.00,,,0.00,Wunderground v.1.15,2013-04-14 12:35:00,
2013-04-14 05:45:00,65.5,32.4,29.44,SW,229,9.0,9.0,29,0.00,,,0.00,Wunderground v.1.15,2013-04-14 12:45:00,
2013-04-14 05:55:00,65.6,31.6,29.45,SSW,209,6.0,8.0,28,0.00,,,0.00,Wunderground v.1.15,2013-04-14 12:55:00,
2013-04-14 06:00:00,65.5,31.5,29.45,SW,223,7.0,9.0,28,0.00,,,0.00,Wunderground v.1.15,2013-04-14 13:00:00,
2013-04-14 06:05:00,65.6,31.6,29.45,South,182,9.0,9.0,28,0.00,,,0.00,Wunderground v.1.15,2013-04-14 13:05:00,
2013-04-14 06:15:00,65.3,31.3,29.45,SW,227,10.0,16.0,28,0.00,,,0.00,Wunderground v.1.15,2013-04-14 13:15:00,
2013-04-14 06:20:00,65.3,32.2,29.45,SW,228,10.0,13.0,29,0.00,,,0.00,Wunderground v.1.15,2013-04-14 13:20:00,
2013-04-14 06:30:00,65.2,32.1,29.45,SSW,200,10.0,10.0,29,0.00,,,0.00,Wunderground v.1.15,2013-04-14 13:30:00,
2013-04-14 06:35:00,65.2,31.2,29.45,SW,232,9.0,10.0,28,0.00,,,0.00,Wunderground v.1.15,2013-04-14 13:35:00,
2013-04-14 06:45:00,65.5,31.5,29.45,SW,227,9.0,11.0,28,0.00,,,0.00,Wunderground v.1.15,2013-04-14 13:45:00,
2013-04-14 06:50:00,65.5,31.5,29.46,SW,230,8.0,10.0,28,0.00,,,0.00,Wunderground v.1.15,2013-04-14 13:50:00,
2013-04-14 07:00:00,65.5,31.5,29.46,SW,233,9.0,9.0,28,0.00,,,0.00,Wunderground v.1.15,2013-04-14 14:00:00,
2013-04-14 07:05:00,65.3,31.3,29.47,SSW,201,5.0,9.0,28,0.00,,,0.00,Wunderground v.1.15,2013-04-14 14:05:00,
2013-04-14 07:15:00,66.0,31.9,29.47,SSW,197,5.0,8.0,28,0.00,,,0.00,Wunderground v.1.15,2013-04-14 14:15:00,
2013-04-14 07:20:00,66.3,31.3,29.47,WSW,238,7.0,7.0,27,0.00,,,0.00,Wunderground v.1.15,2013-04-14 14:20:00,
2013-04-14 07:25:00,66.8,32.6,29.47,SSW,212,8.0,9.0,28,0.00,,,0.00,Wunderground v.1.15,2013-04-14 14:25:00,
2013-04-14 07:30:00,66.9,31.8,29.47,SSW,204,8.0,11.0,27,0.00,,,0.00,Wunderground v.1.15,2013-04-14 14:30:00,
2013-04-14 07:40:00,67.8,33.5,29.48,SSW,211,6.0,6.0,28,0.00,,,0.00,Wunderground v.1.15,2013-04-14 14:40:00,
2013-04-14 07:50:00,68.1,33.7,29.48,SW,227,4.0,10.0,28,0.00,,,0.00,Wunderground v.1.15,2013-04-14 14:50:00,
2013-04-14 07:55:00,68.8,32.5,29.48,SW,233,6.0,14.0,26,0.00,,,0.00,Wunderground v.1.15,2013-04-14 14:55:00,
2013-04-14 08:05:00,69.9,32.5,29.48,SW,218,8.0,11.0,25,0.00,,,0.00,Wunderground v.1.15,2013-04-14 15:05:00,
2013-04-14 08:15:00,70.4,32.9,29.48,SW,220,7.0,13.0,25,0.00,,,0.00,Wunderground v.1.15,2013-04-14 15:15:00,
2013-04-14 08:20:00,70.8,33.2,29.48,SW,223,8.0,12.0,25,0.00,,,0.00,Wunderground v.1.15,2013-04-14 15:20:00,
2013-04-14 08:25:00,71.3,32.6,29.48,SSW,212,6.0,12.0,24,0.00,,,0.00,Wunderground v.1.15,2013-04-14 15:25:00,
2013-04-14 08:35:00,71.6,32.9,29.48,SSW,198,6.0,6.0,24,0.00,,,0.00,Wunderground v.1.15,2013-04-14 15:35:00,
2013-04-14 08:45:00,72.7,31.6,29.48,WSW,247,4.0,9.0,22,0.00,,,0.00,Wunderground v.1.15,2013-04-14 15:45:00,
2013-04-14 08:50:00,73.0,33.0,29.48,SSW,194,5.0,8.0,23,0.00,,,0.00,Wunderground v.1.15,2013-04-14 15:50:00,
2013-04-14 09:00:00,73.0,30.7,29.48,SW,225,3.0,6.0,21,0.00,,,0.00,Wunderground v.1.15,2013-04-14 16:00:00,
2013-04-14 09:05:00,73.5,31.1,29.49,SSW,213,3.0,6.0,21,0.00,,,0.00,Wunderground v.1.15,2013-04-14 16:05:00,
2013-04-14 09:15:00,74.7,29.7,29.49,WSW,239,3.0,3.0,19,0.00,,,0.00,Wunderground v.1.15,2013-04-14 16:15:00,
2013-04-14 09:20:00,75.3,30.2,29.49,West,274,2.0,2.0,19,0.00,,,0.00,Wunderground v.1.15,2013-04-14 16:20:00,
2013-04-14 09:30:00,74.9,31.1,29.49,WNW,288,2.0,2.0,20,0.00,,,0.00,Wunderground v.1.15,2013-04-14 16:30:00,
2013-04-14 16:10:00,80.9,30.5,29.33,SW,223,22.0,23.0,16,0.00,,,0.00,Wunderground v.1.15,2013-04-14 23:10:00,
2013-04-14 16:15:00,80.3,35.6,29.33,SW,221,22.0,25.0,20,0.00,,,0.00,Wunderground v.1.15,2013-04-14 23:15:00,
2013-04-14 16:20:00,79.9,31.2,29.34,WSW,240,21.0,21.0,17,0.00,,,0.00,Wunderground v.1.15,2013-04-14 23:20:00,
2013-04-14 16:30:00,79.8,32.5,29.34,SW,216,19.0,19.0,18,0.00,,,0.00,Wunderground v.1.15,2013-04-14 23:30:00,
2013-04-14 16:35:00,79.9,32.6,29.33,SSW,200,17.0,19.0,18,0.00,,,0.00,Wunderground v.1.15,2013-04-14 23:35:00,
2013-04-14 16:45:00,79.9,31.2,29.33,SW,228,17.0,22.0,17,0.00,,,0.00,Wunderground v.1.15,2013-04-14 23:45:00,
2013-04-14 16:50:00,80.3,31.5,29.33,SW,214,17.0,22.0,17,0.00,,,0.00,Wunderground v.1.15,2013-04-14 23:50:00,
2013-04-14 17:00:00,79.6,30.9,29.33,SW,229,20.0,31.0,17,0.00,,,0.00,Wunderground v.1.15,2013-04-15 00:00:00,
2013-04-14 17:05:00,78.6,30.1,29.31,SW,225,23.0,31.0,17,0.00,,,0.00,Wunderground v.1.15,2013-04-15 00:05:00,
2013-04-14 17:15:00,78.6,31.5,29.31,SW,234,21.0,30.0,18,0.00,,,0.00,Wunderground v.1.15,2013-04-15 00:15:00,
2013-04-14 17:20:00,77.9,31.0,29.31,WSW,254,22.0,26.0,18,0.00,,,0.00,Wunderground v.1.15,2013-04-15 00:20:00,
2013-04-14 17:25:00,77.2,31.7,29.31,SW,236,23.0,26.0,19,0.00,,,0.00,Wunderground v.1.15,2013-04-15 00:25:00,
2013-04-14 17:35:00,76.8,31.4,29.31,West,265,22.0,31.0,19,0.00,,,0.00,Wunderground v.1.15,2013-04-15 00:35:00,
2013-04-14 17:50:00,75.1,31.3,29.31,WSW,238,24.0,24.0,20,0.00,,,0.00,Wunderground v.1.15,2013-04-15 00:50:00,
2013-04-14 17:55:00,74.0,32.7,29.31,WSW,247,23.0,24.0,22,0.00,,,0.00,Wunderground v.1.15,2013-04-15 00:55:00,
2013-04-14 18:05:00,73.9,32.6,29.31,SSW,211,22.0,23.0,22,0.00,,,0.00,Wunderground v.1.15,2013-04-15 01:05:00,
2013-04-14 18:15:00,73.0,31.9,29.31,SW,225,22.0,22.0,22,0.00,,,0.00,Wunderground v.1.15,2013-04-15 01:15:00,
2013-04-14 18:20:00,73.0,31.9,29.31,WSW,257,22.0,28.0,22,0.00,,,0.00,Wunderground v.1.15,2013-04-15 01:20:00,
2013-04-14 18:30:00,73.0,31.9,29.31,SW,219,22.0,22.0,22,0.00,,,0.00,Wunderground v.1.15,2013-04-15 01:30:00,
2013-04-14 18:40:00,72.8,30.6,29.31,WSW,245,22.0,22.0,21,0.00,,,0.00,Wunderground v.1.15,2013-04-15 01:40:00,
2013-04-14 18:45:00,72.3,31.3,29.31,West,269,20.0,22.0,22,0.00,,,0.00,Wunderground v.1.15,2013-04-15 01:45:00,
2013-04-14 18:55:00,71.8,30.9,29.31,South,186,20.0,20.0,22,0.00,,,0.00,Wunderground v.1.15,2013-04-15 01:55:00,
2013-04-14 19:00:00,70.8,31.1,29.31,West,276,18.0,18.0,23,0.00,,,0.00,Wunderground v.1.15,2013-04-15 02:00:00,
2013-04-14 19:05:00,70.4,30.8,29.33,SSW,209,16.0,20.0,23,0.00,,,0.00,Wunderground v.1.15,2013-04-15 02:05:00,
2013-04-14 19:15:00,69.8,31.4,29.33,SSW,211,17.0,17.0,24,0.00,,,0.00,Wunderground v.1.15,2013-04-15 02:15:00,
2013-04-14 19:20:00,69.4,31.0,29.35,WSW,237,15.0,15.0,24,0.00,,,0.00,Wunderground v.1.15,2013-04-15 02:20:00,
2013-04-14 19:30:00,68.8,31.5,29.35,SW,219,12.0,15.0,25,0.00,,,0.00,Wunderground v.1.15,2013-04-15 02:30:00,
2013-04-14 19:35:00,68.8,31.5,29.36,SSW,199,13.0,15.0,25,0.00,,,0.00,Wunderground v.1.15,2013-04-15 02:35:00,
2013-04-14 19:45:00,68.9,30.6,29.36,SW,225,7.0,17.0,24,0.00,,,0.00,Wunderground v.1.15,2013-04-15 02:45:00,
2013-04-14 19:50:00,68.9,30.6,29.36,WSW,252,5.0,5.0,24,0.00,,,0.00,Wunderground v.1.15,2013-04-15 02:50:00,
2013-04-14 20:00:00,68.8,30.5,29.36,SW,235,8.0,8.0,24,0.00,,,0.00,Wunderground v.1.15,2013-04-15 03:00:00,
2013-04-14 20:05:00,68.6,30.3,29.37,SSW,195,6.0,11.0,24,0.00,,,0.00,Wunderground v.1.15,2013-04-15 03:05:00,
2013-04-14 20:15:00,67.9,31.7,29.37,WSW,255,10.0,15.0,26,0.00,,,0.00,Wunderground v.1.15,2013-04-15 03:15:00,
2013-04-14 20:20:00,67.8,31.6,29.37,WSW,240,10.0,10.0,26,0.00,,,0.00,Wunderground v.1.15,2013-04-15 03:20:00,
2013-04-14 20:25:00,67.6,31.5,29.37,SW,234,10.0,14.0,26,0.00,,,0.00,Wunderground v.1.15,2013-04-15 03:25:00,
2013-04-14 20:35:00,67.6,31.5,29.38,WSW,244,8.0,11.0,26,0.00,,,0.00,Wunderground v.1.15,2013-04-15 03:35:00,
2013-04-14 20:45:00,67.4,30.3,29.38,WSW,239,6.0,6.0,25,0.00,,,0.00,Wunderground v.1.15,2013-04-15 03:45:00,
2013-04-14 20:50:00,67.6,30.5,29.39,SSW,211,3.0,3.0,25,0.00,,,0.00,Wunderground v.1.15,2013-04-15 03:50:00,
2013-04-14 20:55:00,67.9,29.7,29.39,WSW,247,2.0,3.0,24,0.00,,,0.00,Wunderground v.1.15,2013-04-15 03:55:00,
2013-04-14 21:00:00,67.9,28.7,29.39,NNW,331,2.0,2.0,23,0.00,,,0.00,Wunderground v.1.15,2013-04-15 04:00:00,
2013-04-14 21:05:00,68.4,28.0,29.39,WNW,284,3.0,6.0,22,0.00,,,0.00,Wunderground v.1.15,2013-04-15 04:05:00,
2013-04-14 21:10:00,68.4,28.0,29.39,West,267,7.0,9.0,22,0.00,,,0.00,Wunderground v.1.15,2013-04-15 04:10:00,
2013-04-14 21:15:00,68.9,26.1,29.39,WSW,247,10.0,23.0,20,0.00,,,0.00,Wunderground v.1.15,2013-04-15 04:15:00,
2013-04-14 21:20:00,68.6,29.3,29.38,WSW,257,14.0,19.0,23,0.00,,,0.00,Wunderground v.1.15,2013-04-15 04:20:00,
2013-04-14 21:25:00,67.6,30.5,29.38,WSW,241,15.0,19.0,25,0.00,,,0.00,Wunderground v.1.15,2013-04-15 04:25:00,
2013-04-14 21:35:00,67.4,30.3,29.40,SW,224,16.0,20.0,25,0.00,,,0.00,Wunderground v.1.15,2013-04-15 04:35:00,
2013-04-14 21:45:00,66.6,30.6,29.40,WSW,238,16.0,23.0,26,0.00,,,0.00,Wunderground v.1.15,2013-04-15 04:45:00,
2013-04-14 21:50:00,66.6,31.5,29.39,SW,227,20.0,20.0,27,0.00,,,0.00,Wunderground v.1.15,2013-04-15 04:50:00,
2013-04-14 22:00:00,67.1,30.1,29.39,SW,226,24.0,24.0,25,0.00,,,0.00,Wunderground v.1.15,2013-04-15 05:00:00,
2013-04-14 22:05:00,66.8,29.8,29.38,SW,228,23.0,27.0,25,0.00,,,0.00,Wunderground v.1.15,2013-04-15 05:05:00,
2013-04-14 22:15:00,66.4,29.5,29.38,SW,236,21.0,24.0,25,0.00,,,0.00,Wunderground v.1.15,2013-04-15 05:15:00,
2013-04-14 22:20:00,66.4,28.5,29.39,SW,215,20.0,20.0,24,0.00,,,0.00,Wunderground v.1.15,2013-04-15 05:20:00,
2013-04-14 22:30:00,66.6,27.6,29.39,South,184,25.0,25.0,23,0.00,,,0.00,Wunderground v.1.15,2013-04-15 05:30:00,
2013-04-14 22:35:00,66.4,27.4,29.38,SW,222,24.0,28.0,23,0.00,,,0.00,Wunderground v.1.15,2013-04-15 05:35:00,
2013-04-14 22:45:00,66.3,27.4,29.38,SW,215,24.0,25.0,23,0.00,,,0.00,Wunderground v.1.15,2013-04-15 05:45:00,
2013-04-14 22:55:00,65.6,28.8,29.37,SSW,208,23.0,28.0,25,0.00,,,0.00,Wunderground v.1.15,2013-04-15 05:55:00,
2013-04-14 23:00:00,64.8,29.1,29.37,WSW,241,23.0,23.0,26,0.00,,,0.00,Wunderground v.1.15,2013-04-15 06:00:00,
2013-04-14 23:05:00,64.7,28.0,29.38,SW,220,23.0,23.0,25,0.00,,,0.00,Wunderground v.1.15,2013-04-15 06:05:00,
2013-04-14 23:15:00,65.3,26.5,29.38,SSW,202,25.0,25.0,23,0.00,,,0.00,Wunderground v.1.15,2013-04-15 06:15:00,
2013-04-14 23:20:00,65.3,26.5,29.38,SW,215,25.0,25.0,23,0.00,,,0.00,Wunderground v.1.15,2013-04-15 06:20:00,
2013-04-14 23:30:00,65.2,26.4,29.38,WSW,250,24.0,34.0,23,0.00,,,0.00,Wunderground v.1.15,2013-04-15 06:30:00,
2013-04-14 23:35:00,64.7,27.0,29.37,SW,229,24.0,34.0,24,0.00,,,0.00,Wunderground v.1.15,2013-04-15 06:35:00,
2013-04-14 23:45:00,64.7,27.0,29.37,SSW,203,24.0,31.0,24,0.00,,,0.00,Wunderground v.1.15,2013-04-15 06:45:00,
2013-04-14 23:55:00,64.7,27.0,29.36,SW,234,24.0,25.0,24,0.00,,,0.00,Wunderground v.1.15,2013-04-15 06:55:00,